This is the latest recevied weather packets stored in our database for station/object N4WFF. If no packets are shown the sender has not sent any weather packets the latest 10 day(s).
| Time | Temp. | Humidity | Pressure | Rain* | Wind** | Luminosity | Snow |
|---|---|---|---|---|---|---|---|
| 1777933255 | 26.67° C | 34% | 1014.2 hPa | 0 mm | - | 307 W/m² | - |
| 1777932955 | 26.11° C | 34% | 1014.3 hPa | 0 mm | - | 326 W/m² | - |
| 1777932655 | 26.11° C | 35% | 1014.3 hPa | 0 mm | - | 343 W/m² | - |
| 1777932355 | 26.67° C | 32% | 1014.3 hPa | 0 mm | - | 361 W/m² | - |
| 1777932056 | 26.11° C | 33% | 1014.3 hPa | 0 mm | - | 379 W/m² | - |
| 1777931756 | 26.67° C | 34% | 1014.3 hPa | 0 mm | - | 397 W/m² | - |
| 1777931456 | 26.67° C | 34% | 1014.4 hPa | 0 mm | - | 414 W/m² | - |
| 1777931155 | 26.11° C | 35% | 1014.4 hPa | 0 mm | - | 436 W/m² | - |
| 1777930855 | 26.67° C | 36% | 1014.3 hPa | 0 mm | - | 453 W/m² | - |
| 1777930556 | 26.67° C | 36% | 1014.4 hPa | 0 mm | - | 470 W/m² | - |
| 1777930256 | 26.67° C | 35% | 1014.4 hPa | 0 mm | - | 489 W/m² | - |
| 1777929955 | 26.67° C | 35% | 1014.3 hPa | 0 mm | - | 507 W/m² | - |
| 1777929656 | 26.67° C | 36% | 1014.3 hPa | 0 mm | - | 526 W/m² | - |
| 1777929355 | 26.67° C | 35% | 1014.3 hPa | 0 mm | - | 543 W/m² | - |
| 1777929055 | 26.67° C | 37% | 1014.4 hPa | 0 mm | - | 559 W/m² | - |
| 1777928755 | 26.67° C | 36% | 1014.3 hPa | 0 mm | - | 575 W/m² | - |
| 1777928456 | 26.67° C | 36% | 1014.3 hPa | 0 mm | - | 588 W/m² | - |
| 1777928156 | 26.11° C | 36% | 1014.3 hPa | 0 mm | - | 605 W/m² | - |
| 1777927856 | 26.11° C | 36% | 1014.5 hPa | 0 mm | - | 619 W/m² | - |
| 1777927556 | 26.11° C | 36% | 1014.5 hPa | 0 mm | - | 639 W/m² | - |
| 1777927255 | 26.67° C | 36% | 1014.5 hPa | 0 mm | - | 658 W/m² | - |
| 1777926955 | 26.11° C | 37% | 1014.6 hPa | 0 mm | - | 673 W/m² | - |
| 1777926656 | 26.11° C | 37% | 1014.8 hPa | 0 mm | - | 695 W/m² | - |
| 1777926077 | 26.11° C | 36% | 1014.8 hPa | 0 mm | - | 717 W/m² | - |
| 1777925756 | 26.11° C | 37% | 1015 hPa | 0 mm | - | 735 W/m² | - |
* Rain latest hour (hover to see other rain measurements)
** Current wind speed in m/s (hover to see current wind gust speed)